This demonstration page uses our WeatherBlox Daily Observations layout. Learn more.

Left ArrowRight Arrow

53.62937, 11.41316

Hourly Observations for June 2, 2015

Temp ( °F °C ) Dew Point ( °F °C ) Humidity (%) Winds ( mph kmh ) Pressure ( in mb ) Visibility ( mi km ) Precip ( " mm )
6:20 am 06:20 Mostly Cloudy 50 10 48 9 94 94 SSE 13 20 29.85 1011 4 6 N/A
6:50 am 06:50 Mostly Cloudy 52 11 50 10 94 94 SSE 14 22 29.85 1011 3 5 N/A
7:20 am 07:20 Mostly Cloudy 52 11 50 10 94 94 S 13 20 29.85 1011 4 7 N/A
7:50 am 07:50 Partly Cloudy 52 11 50 10 94 94 S 12 19 29.85 1011 6 9 N/A
8:20 am 08:20 Mostly Sunny 54 12 50 10 88 88 S 13 20 29.83 1010 30 48 N/A
8:50 am 08:50 Mostly Sunny 55 13 48 9 77 77 S 12 19 29.83 1010 7 11 N/A
9:20 am 09:20 Mostly Sunny 57 14 48 9 72 72 S 13 20 29.83 1010 7 11 N/A
9:50 am 09:50 Mostly Sunny 59 15 48 9 68 68 SSW 16 26 29.83 1010 7 11 N/A
10:17 am 10:17 Mostly Sunny 61 16 46 8 59 59 SSW 17 28 29.80 1009 7 11 N/A
10:20 am 10:20 Mostly Sunny 61 16 48 9 63 63 SSW 17 28 29.80 1009 7 11 N/A
10:50 am 10:50 Mostly Sunny 64 18 46 8 52 52 SSW 22 35 29.80 1009 7 11 N/A
10:53 am 10:53 Mostly Sunny 64 18 46 8 52 52 SSW 22 35 29.80 1009 7 11 N/A
11:20 am 11:20 Mostly Sunny 64 18 46 8 52 52 SSW 20 31 29.80 1009 7 11 N/A
11:50 am 11:50 Mostly Sunny 64 18 48 9 56 56 SSW 24 39 29.80 1009 30 48 N/A
12:20 pm 12:20 Mostly Sunny 64 18 48 9 56 56 SSW 24 39 29.80 1009 7 11 N/A
12:48 pm 12:48 Mostly Sunny 64 18 48 9 56 56 SSW 24 39 29.77 1008 7 11 N/A
12:50 pm 12:50 Mostly Sunny 64 18 48 9 56 56 SSW 25 41 29.77 1008 7 11 N/A
1:20 pm 13:20 Mostly Sunny 66 19 48 9 52 52 S 23 37 29.77 1008 7 11 N/A
1:50 pm 13:50 Partly Cloudy 66 19 50 10 56 56 SSW 23 37 29.77 1008 30 48 N/A
2:20 pm 14:20 Mostly Cloudy 66 19 50 10 56 56 SSW 21 33 29.77 1008 30 48 N/A
2:50 pm 14:50 Cloudy 66 19 50 10 56 56 SSW 22 35 29.77 1008 30 48 N/A
3:20 pm 15:20 Cloudy 66 19 50 10 56 56 SSW 18 30 29.77 1008 30 48 N/A
3:50 pm 15:50 Cloudy 66 19 50 10 56 56 SSW 18 30 29.80 1009 30 48 N/A
4:20 pm 16:20 Cloudy 68 20 50 10 53 53 SSW 16 26 29.80 1009 30 48 N/A
4:50 pm 16:50 Cloudy 68 20 50 10 53 53 SSW 22 35 29.77 1008 30 48 N/A
5:20 pm 17:20 Cloudy 68 20 50 10 53 53 SSW 20 31 29.80 1009 30 48 N/A
5:50 pm 17:50 Cloudy 68 20 52 11 56 56 SW 17 28 29.80 1009 30 48 N/A
6:20 pm 18:20 Cloudy 68 20 52 11 56 56 SW 16 26 29.80 1009 30 48 N/A
6:50 pm 18:50 Mostly Cloudy 70 21 54 12 57 57 SW 17 28 29.80 1009 30 48 N/A

Powered by AerisWeather